Location: American Medical Response
(33.3472°N, 96.5511°W)
Time: 23:38:13
(UTC+00:00)

Cosmos 1812 - Visible Passes

Search period start: 27 June 2022 00:00
Search period end: 07 July 2022 00:00
Orbit: 511 x 513 km, 82.5° (Epoch: 27 June)

Date Brightness Start Highest point End Pass type
(mag) Time Alt. Az. Time Alt. Az. Time Alt. Az.
27 Jun 4.6 08:09:27 10° NNE 08:12:12 27° ENE 08:12:12 27° ENE visible
27 Jun 4.9 09:46:20 10° WNW 09:47:07 12° WNW 09:47:07 12° WNW visible
28 Jun 5.0 07:53:42 10° NNE 07:55:56 21° ENE 07:55:56 21° ENE visible
28 Jun 4.8 09:29:43 10° NW 09:30:51 14° WNW 09:30:51 14° WNW visible
29 Jun 5.4 07:38:02 10° NNE 07:39:40 16° ENE 07:39:40 16° ENE visible
29 Jun 4.8 09:13:18 10° NW 09:14:35 16° WNW 09:14:35 16° WNW visible
30 Jun 5.6 07:22:31 10° NE 07:23:26 13° NE 07:23:26 13° NE visible
30 Jun 4.7 08:56:59 10° NNW 08:58:22 18° NW 08:58:22 18° NW visible
01 Jul 4.8 08:40:46 10° NNW 08:42:09 19° NW 08:42:09 19° NW visible
02 Jul 4.9 08:24:35 10° NNW 08:25:57 20° NNW 08:25:57 20° NNW visible
03 Jul 5.0 08:08:28 10° NNW 08:09:46 20° NNW 08:09:46 20° NNW visible
04 Jul 5.1 07:52:24 10° N 07:53:37 20° N 07:53:37 20° N visible
05 Jul 5.3 07:36:21 10° N 07:37:28 19° N 07:37:28 19° N visible
06 Jul 5.5 07:20:20 10° N 07:21:19 17° N 07:21:19 17° N visible
